DW3929 Weather Reports


Display with metric or nautical units.
time (UTC)temp
F
wind
direction
speed
MPH
gust
MPH
rain 1hr
in
rain 24hr
in
rain mn
in
humidity
%
barometer
mb
20260507151829 63 360 7.0 14.0 0.00 0.00 0.00 85 1017.2
20260507151328 63 360 5.0 18.0 0.00 0.00 0.00 86 1017.0
20260507150828 62 360 8.0 18.0 0.00 0.00 0.00 86 1017.0
20260507150350 62 360 8.0 15.0 0.00 0.00 0.00 86 1017.1
20260507145828 62 360 5.0 18.0 0.00 0.00 0.00 87 1017.2
20260507145327 62 360 5.0 15.0 0.00 0.00 0.00 87 1017.3
20260507144825 62 360 6.0 14.0 0.00 0.00 0.00 87 1017.3
20260507144346 62 360 5.0 13.0 0.00 0.00 0.00 87 1017.5
20260507143814 62 360 5.0 11.0 0.00 0.00 0.00 87 1017.7
20260507143330 62 360 4.0 11.0 0.00 0.00 0.00 87 1017.5
20260507142831 62 360 5.0 13.0 0.00 0.00 0.00 87 1017.3
20260507142331 62 360 2.0 13.0 0.00 0.00 0.00 87 1017.3
20260507141831 62 360 6.0 14.0 0.00 0.00 0.00 87 1017.1
20260507141312 62 360 6.0 14.0 0.00 0.00 0.00 88 1017.1
20260507140851 62 360 5.0 14.0 0.00 0.00 0.00 88 1017.0
20260507140348 62 360 3.0 14.0 0.00 0.00 0.00 89 1017.1
20260507135825 62 360 5.0 14.0 0.00 0.00 0.00 89 1016.8
20260507135324 62 360 4.0 18.0 0.00 0.00 0.00 89 1016.7
20260507134822 62 360 5.0 16.0 0.00 0.00 0.00 89 1016.6
20260507134321 62 360 4.0 10.0 0.00 0.00 0.00 89 1016.6
20260507133842 62 360 3.0 11.0 0.00 0.00 0.00 89 1016.7
20260507133321 61 360 3.0 11.0 0.00 0.00 0.00 89 1016.8
20260507132820 61 360 2.0 11.0 0.00 0.00 0.00 89 1016.8
20260507132333 61 360 2.0 14.0 0.00 0.00 0.00 89 1017.1
20260507131832 61 360 6.0 14.0 0.00 0.00 0.00 89 1017.1
20260507131312 61 360 4.0 14.0 0.00 0.00 0.00 89 1017.1
20260507130831 61 360 5.0 17.0 0.00 0.00 0.00 90 1017.0
20260507130350 61 360 6.0 17.0 0.00 0.00 0.00 90 1016.8
20260507125848 61 360 3.0 14.0 0.00 0.00 0.00 90 1016.8
20260507125328 61 360 7.0 14.0 0.00 0.00 0.00 90 1016.6
20260507124848 61 360 4.0 17.0 0.00 0.00 0.00 91 1016.6
20260507124324 61 360 5.0 17.0 0.00 0.00 0.00 91 1016.7
20260507123822 61 360 6.0 13.0 0.00 0.00 0.00 90 1016.6
20260507123314 61 360 4.0 10.0 0.00 0.00 0.00 90 1016.3
20260507122814 61 360 3.0 14.0 0.00 0.00 0.00 90 1016.2
20260507122329 61 360 5.0 17.0 0.00 0.00 0.00 90 1016.2
20260507121848 61 360 5.0 17.0 0.00 0.00 0.00 90 1016.2
20260507121327 61 360 6.0 14.0 0.00 0.00 0.00 90 1016.1
20260507120826 61 360 7.0 17.0 0.00 0.00 0.00 90 1016.1
20260507120326 61 360 6.0 15.0 0.00 0.00 0.00 90 1015.9
20260507115824 61 360 5.0 12.0 0.00 0.00 0.00 90 1015.8
20260507115324 61 360 4.0 12.0 0.00 0.00 0.00 91 1015.6
20260507114823 61 360 3.0 11.0 0.00 0.00 0.00 91 1015.8
20260507114322 61 360 4.0 17.0 0.00 0.00 0.00 91 1015.7
20260507113821 61 360 6.0 17.0 0.00 0.00 0.00 90 1015.6
20260507113316 61 360 6.0 16.0 0.00 0.00 0.00 90 1015.6
20260507112815 61 360 6.0 14.0 0.00 0.00 0.00 90 1015.7
20260507112313 61 360 4.0 12.0 0.00 0.00 0.00 90 1015.8
20260507111835 61 360 5.0 14.0 0.00 0.00 0.00 90 1015.6
20260507111330 61 360 5.0 14.0 0.00 0.00 0.00 90 1015.7
20260507110828 61 360 3.0 14.0 0.00 0.00 0.00 90 1015.6
20260507110328 61 360 4.0 14.0 0.00 0.00 0.00 89 1015.7
20260507105826 61 360 2.0 14.0 0.00 0.00 0.00 89 1015.5
20260507105328 61 360 4.0 14.0 0.00 0.00 0.00 89 1015.5
20260507104827 62 360 5.0 14.0 0.00 0.00 0.00 89 1015.2
20260507104347 62 360 5.0 16.0 0.00 0.00 0.00 89 1014.9
20260507103825 62 360 4.0 16.0 0.00 0.00 0.00 88 1014.8
20260507103323 62 360 5.0 12.0 0.00 0.00 0.00 88 1014.6
20260507102822 62 360 4.0 12.0 0.00 0.00 0.00 88 1015.0
20260507102313 62 360 4.0 12.0 0.00 0.00 0.00 88 1015.0
20260507101828 62 360 6.0 14.0 0.00 0.00 0.00 88 1014.9
20260507101326 62 360 5.0 14.0 0.00 0.00 0.00 88 1014.7
20260507100826 62 360 5.0 13.0 0.00 0.00 0.00 88 1015.0
20260507100324 62 360 3.0 10.0 0.00 0.00 0.00 88 1014.9
20260507095845 62 360 4.0 10.0 0.00 0.00 0.00 87 1014.9
20260507095317 63 360 2.0 10.0 0.00 0.00 0.00 87 1015.1
20260507094838 63 360 2.0 10.0 0.00 0.00 0.00 87 1015.0
20260507094337 63 360 3.0 10.0 0.00 0.00 0.00 87 1015.0
20260507093836 63 360 3.0 10.0 0.00 0.00 0.00 86 1015.1
20260507093312 63 360 4.0 8.0 0.00 0.00 0.00 86 1014.9
20260507092852 63 360 1.0 10.0 0.00 0.00 0.00 87 1014.7
20260507092329 63 360 3.0 10.0 0.00 0.00 0.00 86 1014.8
20260507091825 63 360 1.0 10.0 0.00 0.00 0.00 87 1014.8
20260507091323 63 360 2.0 10.0 0.00 0.00 0.00 86 1014.7
20260507090822 63 360 3.0 8.0 0.00 0.00 0.00 86 1014.6
20260507090320 63 360 4.0 9.0 0.00 0.00 0.00 86 1014.6
20260507085819 63 360 3.0 11.0 0.00 0.00 0.00 86 1014.5
20260507085319 63 360 4.0 11.0 0.00 0.00 0.00 86 1014.4
20260507084837 63 360 3.0 8.0 0.00 0.00 0.00 86 1014.1
20260507084316 63 360 2.0 8.0 0.00 0.00 0.00 86 1014.4
20260507083816 63 360 2.0 9.0 0.00 0.00 0.00 86 1014.3
20260507083316 63 360 3.0 12.0 0.00 0.00 0.00 86 1014.3
20260507082848 63 360 4.0 12.0 0.00 0.00 0.00 86 1014.2
20260507082347 63 360 5.0 12.0 0.00 0.00 0.00 86 1014.2
20260507081826 63 360 3.0 11.0 0.00 0.00 0.00 85 1014.1
20260507081346 63 360 3.0 11.0 0.00 0.00 0.00 85 1014.1
20260507080825 63 360 1.0 11.0 0.00 0.00 0.00 85 1014.4
20260507080324 63 360 3.0 11.0 0.00 0.00 0.00 85 1014.2
20260507075846 63 360 3.0 10.0 0.00 0.00 0.00 85 1014.1
20260507075325 63 360 3.0 9.0 0.00 0.00 0.00 85 1014.4
20260507074824 64 360 3.0 9.0 0.00 0.00 0.00 86 1014.3
20260507074322 64 360 3.0 8.0 0.00 0.00 0.00 86 1014.2
20260507073822 64 360 3.0 6.0 0.00 0.00 0.00 86 1014.4
20260507073341 64 360 3.0 9.0 0.00 0.00 0.00 86 1014.5
20260507072819 64 360 3.0 9.0 0.00 0.00 0.00 86 1014.6
20260507072332 64 360 2.0 8.0 0.00 0.00 0.00 86 1014.6
20260507071832 64 360 2.0 6.0 0.00 0.00 0.00 86 1014.3
20260507071330 64 360 2.0 6.0 0.00 0.00 0.00 86 1014.3
20260507070831 64 360 2.0 9.0 0.00 0.00 0.00 86 1014.3
20260507070331 64 360 4.0 11.0 0.00 0.00 0.00 86 1014.2
20260507065831 64 360 3.0 11.0 0.00 0.00 0.00 86 1014.2
20260507065330 64 360 4.0 9.0 0.00 0.00 0.00 86 1014.4
20260507064830 64 360 3.0 9.0 0.00 0.00 0.00 86 1014.5
20260507064330 64 360 1.0 9.0 0.00 0.00 0.00 86 1014.3
20260507063830 64 360 3.0 9.0 0.00 0.00 0.00 86 1014.7
20260507063329 64 360 3.0 11.0 0.00 0.00 0.00 86 1014.6
20260507062828 64 360 3.0 11.0 0.00 0.00 0.00 86 1014.3
20260507062329 64 360 3.0 10.0 0.00 0.00 0.00 85 1014.2
20260507061830 64 360 3.0 10.0 0.00 0.00 0.00 85 1014.5
20260507061329 64 360 5.0 10.0 0.00 0.00 0.00 85 1013.7
20260507060828 64 360 1.0 12.0 0.00 0.00 0.00 85 1014.0
20260507060329 64 360 5.0 12.0 0.00 0.00 0.00 85 1014.2
20260507055829 64 360 5.0 12.0 0.00 0.00 0.00 85 1014.2
20260507055329 64 360 4.0 11.0 0.00 0.00 0.00 85 1014.0
20260507054850 64 360 3.0 14.0 0.00 0.00 0.00 85 1014.1
20260507054349 64 360 4.0 14.0 0.00 0.00 0.00 85 1014.2
20260507053336 64 360 3.0 11.0 0.00 0.00 0.00 85 1014.2
20260507052815 64 360 2.0 11.0 0.00 0.00 0.00 86 1014.1
20260507052314 64 360 3.0 10.0 0.00 0.00 0.00 86 1014.0
20260507051847 64 360 3.0 10.0 0.00 0.00 0.00 86 1014.1
20260507051324 64 360 4.0 11.0 0.00 0.00 0.00 85 1014.4
20260507050825 64 360 5.0 11.0 0.00 0.00 0.00 85 1014.5
20260507050324 64 360 3.0 13.0 0.00 0.00 0.00 86 1014.2
20260507045823 64 360 5.0 13.0 0.00 0.00 0.00 85 1014.3
20260507045324 64 360 4.0 13.0 0.00 0.00 0.00 85 1014.2
20260507044823 64 360 6.0 13.0 0.00 0.00 0.00 85 1014.1
20260507044322 64 360 4.0 14.0 0.00 0.00 0.00 85 1013.9
20260507043822 64 360 5.0 14.0 0.00 0.00 0.00 85 1013.9
20260507043324 64 360 4.0 10.0 0.00 0.00 0.00 85 1013.9
20260507042824 64 360 4.0 11.0 0.00 0.00 0.00 85 1014.0
20260507042344 64 360 4.0 16.0 0.00 0.00 0.00 85 1014.0
20260507041823 64 360 4.0 16.0 0.00 0.00 0.00 85 1014.1
20260507041319 64 360 6.0 13.0 0.00 0.00 0.00 86 1014.0
20260507040818 64 360 4.0 11.0 0.00 0.00 0.00 86 1013.8
20260507040312 64 360 5.0 11.0 0.00 0.00 0.00 86 1013.8
20260507035831 64 360 4.0 11.0 0.00 0.00 0.00 86 1013.7
20260507035330 64 360 4.0 10.0 0.00 0.00 0.00 86 1013.9
20260507034830 64 360 4.0 10.0 0.00 0.00 0.00 86 1014.0
20260507034346 64 360 5.0 9.0 0.00 0.00 0.00 86 1013.8
20260507033825 64 360 3.0 11.0 0.00 0.00 0.00 86 1013.8
20260507033319 64 360 5.0 11.0 0.00 0.00 0.00 86 1013.9
20260507032816 64 360 4.0 10.0 0.00 0.00 0.00 86 1013.4
20260507032316 64 360 3.0 10.0 0.00 0.00 0.00 86 1013.6
20260507031836 64 360 6.0 10.0 0.00 0.00 0.00 86 1013.4
20260507031315 64 360 4.0 8.0 0.00 0.00 0.00 86 1013.5
20260507030815 64 360 2.0 12.0 0.00 0.00 0.00 86 1013.7
20260507030335 64 360 2.0 10.0 0.00 0.00 0.00 86 1013.3
20260507025326 64 360 6.0 9.0 0.00 0.00 0.00 86 1013.6
20260507024826 64 360 2.0 9.0 0.00 0.00 0.00 86 1013.4
20260507024326 64 360 3.0 9.0 0.00 0.00 0.00 86 1012.9
20260507023826 64 360 2.0 9.0 0.00 0.00 0.00 86 1013.0
20260507023327 64 360 2.0 10.0 0.00 0.00 0.00 86 1012.9
20260507022826 64 360 3.0 10.0 0.00 0.00 0.00 86 1012.5
20260507022325 64 360 2.0 12.0 0.00 0.00 0.00 86 1012.9
20260507021826 64 360 3.0 12.0 0.00 0.00 0.00 85 1012.6
20260507021328 65 360 3.0 10.0 0.00 0.00 0.00 85 1012.5
20260507020827 65 360 4.0 10.0 0.00 0.00 0.00 85 1012.4
20260507020327 65 360 3.0 10.0 0.00 0.00 0.00 85 1012.6
20260507015828 65 360 3.0 10.0 0.00 0.00 0.00 85 1012.6
20260507015328 65 360 3.0 9.0 0.00 0.00 0.00 85 1013.0
20260507014828 65 360 3.0 9.0 0.00 0.00 0.00 85 1012.5
20260507014327 65 360 3.0 10.0 0.00 0.00 0.00 85 1012.6
20260507013846 65 360 2.0 10.0 0.00 0.00 0.00 85 1012.2
20260507013344 65 360 3.0 9.0 0.00 0.00 0.00 85 1012.1
20260507012821 65 360 3.0 8.0 0.00 0.00 0.00 85 1012.1
20260507012323 65 360 4.0 10.0 0.00 0.00 0.00 85 1012.1
20260507011820 65 360 3.0 10.0 0.00 0.00 0.00 84 1012.2
20260507011314 65 360 4.0 9.0 0.00 0.00 0.00 85 1012.0
20260507010828 65 360 4.0 10.0 0.00 0.00 0.00 84 1012.1
20260507010325 65 360 3.0 10.0 0.00 0.00 0.00 84 1011.8
20260507005845 65 360 3.0 13.0 0.00 0.00 0.00 84 1011.9
20260507005323 65 360 5.0 13.0 0.00 0.00 0.00 84 1011.8
20260507004822 65 360 3.0 12.0 0.00 0.00 0.00 84 1011.4
20260507004317 65 360 4.0 11.0 0.00 0.00 0.00 84 1011.4
20260507003816 65 360 5.0 13.0 0.00 0.00 0.00 83 1011.4
20260507003313 65 360 4.0 13.0 0.00 0.00 0.00 83 1011.5
20260507002812 66 360 4.0 11.0 0.00 0.00 0.00 83 1011.2
20260507002331 66 360 3.0 11.0 0.00 0.00 0.00 84 1011.3
20260507001830 66 360 3.0 12.0 0.00 0.00 0.00 83 1011.2
20260507001328 66 360 5.0 14.0 0.00 0.00 0.00 83 1011.1
20260507000828 66 360 5.0 14.0 0.00 0.00 0.00 82 1011.0
20260507000347 66 360 6.0 14.0 0.00 0.00 0.00 82 1011.1
20260506235825 66 360 6.0 14.0 0.00 0.00 0.00 81 1011.0
20260506235318 67 360 5.0 12.0 0.00 0.00 0.00 82 1011.1
20260506234816 67 360 3.0 13.0 0.00 0.00 0.00 82 1011.0
20260506234315 67 360 6.0 15.0 0.00 0.00 0.00 81 1010.9
20260506233814 67 360 6.0 15.0 0.00 0.00 0.00 81 1010.9
20260506233314 67 360 5.0 13.0 0.00 0.00 0.00 81 1010.9
20260506232832 67 360 5.0 13.0 0.00 0.00 0.00 81 1010.9
20260506232331 68 360 4.0 14.0 0.00 0.00 0.00 81 1010.9
20260506231830 68 360 4.0 18.0 0.00 0.00 0.00 79 1010.9
20260506231329 68 360 5.0 18.0 0.00 0.00 0.00 80 1010.8
20260506230850 68 360 5.0 14.0 0.00 0.00 0.00 80 1010.7
20260506230321 69 360 4.0 19.0 0.00 0.00 0.00 80 1010.6
20260506225821 69 360 5.0 19.0 0.00 0.00 0.00 80 1010.6
20260506225340 69 360 6.0 21.0 0.00 0.00 0.00 79 1010.5
20260506224838 70 360 7.0 21.0 0.00 0.00 0.00 79 1010.5
20260506224315 70 360 8.0 21.0 0.00 0.00 0.00 78 1010.4
20260506223813 70 360 4.0 13.0 0.00 0.00 0.00 79 1010.2
20260506223326 70 360 5.0 15.0 0.00 0.00 0.00 80 1010.3
20260506222826 71 360 6.0 14.0 0.00 0.00 0.00 78 1010.3
20260506222325 71 360 5.0 19.0 0.00 0.00 0.00 79 1010.4
20260506221824 72 360 7.0 19.0 0.00 0.00 0.00 78 1010.3
20260506221323 72 360 8.0 15.0 0.00 0.00 0.00 77 1010.3
20260506220821 73 360 8.0 15.0 0.00 0.00 0.00 78 1010.1
20260506220321 73 360 5.0 22.0 0.00 0.00 0.00 76 1010.0
20260506215821 74 360 6.0 22.0 0.00 0.00 0.00 78 1009.9
20260506215342 75 360 7.0 19.0 0.00 0.00 0.00 76 1009.8
20260506214819 75 360 5.0 17.0 0.00 0.00 0.00 76 1009.9
20260506214318 76 360 7.0 17.0 0.00 0.00 0.00 76 1009.8
20260506213818 76 360 7.0 15.0 0.00 0.00 0.00 76 1009.9
20260506213317 76 360 6.0 17.0 0.00 0.00 0.00 76 1009.7
20260506212816 76 360 7.0 17.0 0.00 0.00 0.00 76 1009.5
20260506212314 76 360 7.0 18.0 0.00 0.00 0.00 77 1009.6
20260506211851 76 360 7.0 16.0 0.00 0.00 0.00 79 1009.8
20260506211329 76 360 4.0 17.0 0.00 0.00 0.00 78 1009.8
20260506210828 76 360 4.0 17.0 0.00 0.00 0.00 78 1010.0
20260506210347 77 360 9.0 19.0 0.00 0.00 0.00 78 1010.0
20260506205824 78 360 4.0 12.0 0.00 0.00 0.00 78 1010.0
20260506205324 79 360 5.0 14.0 0.00 0.00 0.00 79 1009.9
20260506204824 80 360 5.0 14.0 0.00 0.00 0.00 77 1009.8
20260506204323 81 360 4.0 12.0 0.00 0.00 0.00 77 1009.7
20260506203824 81 360 4.0 13.0 0.00 0.00 0.00 78 1009.7
20260506203325 81 360 6.0 13.0 0.00 0.00 0.00 77 1009.8
20260506202846 81 360 4.0 12.0 0.00 0.00 0.00 78 1009.6
20260506202319 81 360 5.0 12.0 0.00 0.00 0.00 78 1009.6
20260506201818 81 360 4.0 11.0 0.00 0.00 0.00 79 1009.6
20260506201317 81 360 4.0 14.0 0.00 0.00 0.00 78 1009.7
20260506200815 81 360 4.0 14.0 0.00 0.00 0.00 79 1009.5
20260506200316 81 360 3.0 10.0 0.00 0.00 0.00 78 1009.6
20260506195817 81 360 4.0 10.0 0.00 0.00 0.00 79 1009.6
20260506195315 80 360 3.0 10.0 0.00 0.00 0.00 79 1009.5
20260506194816 80 360 5.0 10.0 0.00 0.00 0.00 77 1009.5
20260506194315 81 360 3.0 12.0 0.00 0.00 0.00 78 1009.7
20260506193815 81 360 6.0 12.0 0.00 0.00 0.00 78 1009.7
20260506193315 81 360 4.0 9.0 0.00 0.00 0.00 78 1009.6
20260506192813 80 360 3.0 9.0 0.00 0.00 0.00 78 1009.6
20260506192312 80 360 4.0 12.0 0.00 0.00 0.00 77 1009.6
20260506191830 80 360 3.0 12.0 0.00 0.00 0.00 77 1009.6
20260506191330 81 360 3.0 11.0 0.00 0.00 0.00 78 1009.6
20260506190849 80 360 5.0 11.0 0.00 0.00 0.00 78 1009.8
20260506190327 80 360 4.0 9.0 0.00 0.00 0.00 78 1009.8
20260506185814 79 360 3.0 8.0 0.00 0.00 0.00 78 1009.8
20260506185330 79 360 2.0 8.0 0.00 0.00 0.00 79 1009.9
20260506184831 79 360 4.0 9.0 0.00 0.00 0.00 79 1009.7
20260506184329 78 360 4.0 9.0 0.00 0.00 0.00 79 1009.7
20260506183827 78 360 2.0 11.0 0.00 0.00 0.00 81 1009.9
20260506183325 77 360 4.0 11.0 0.00 0.00 0.00 81 1009.9
20260506182842 77 360 3.0 9.0 0.00 0.00 0.00 82 1010.0
20260506182315 76 360 4.0 8.0 0.00 0.00 0.00 84 1009.9
20260506181816 75 360 1.0 9.0 0.00 0.00 0.00 84 1009.9
20260506181328 75 360 3.0 10.0 0.00 0.00 0.00 83 1009.9
20260506180828 75 360 5.0 11.0 0.00 0.00 0.00 83 1009.9
20260506180326 74 360 4.0 11.0 0.00 0.00 0.00 84 1009.9
20260506175825 73 360 3.0 10.0 0.00 0.00 0.00 88 1010.1
20260506175322 71 360 5.0 10.0 0.00 0.00 0.00 90 1010.1
20260506174821 70 360 4.0 11.0 0.00 0.00 0.00 90 1010.1
20260506174320 69 360 3.0 8.0 0.00 0.00 0.00 91 1010.3
20260506173820 69 360 1.0 11.0 0.00 0.00 0.00 91 1010.5
20260506173318 69 360 3.0 11.0 0.00 0.00 0.00 90 1010.8
20260506172817 69 360 4.0 13.0 0.00 0.00 0.00 88 1010.8
20260506172317 70 360 4.0 12.0 0.00 0.00 0.00 86 1010.9
20260506171814 71 360 5.0 14.0 0.00 0.00 0.00 85 1011.1
20260506171334 72 360 6.0 14.0 0.00 0.00 0.00 84 1011.1
20260506170831 74 360 7.0 13.0 0.00 0.00 0.00 83 1011.0
20260506170330 76 360 7.0 21.0 0.00 0.00 0.00 80 1010.9
20260506165829 79 360 11.0 21.0 0.00 0.00 0.00 77 1010.9
20260506165318 82 360 3.0 10.0 0.00 0.00 0.00 86 1010.6
20260506164817 82 360 4.0 10.0 0.00 0.00 0.00 88 1010.6
20260506164332 81 360 3.0 6.0 0.00 0.00 0.00 89 1010.5
20260506163832 81 360 2.0 6.0 0.00 0.00 0.00 90 1010.7
20260506163330 80 360 2.0 5.0 0.00 0.00 0.00 90 1010.7
20260506162830 80 360 2.0 6.0 0.00 0.00 0.00 90 1010.8
20260506162329 80 360 2.0 8.0 0.00 0.00 0.00 91 1010.8
20260506161825 80 360 3.0 8.0 0.00 0.00 0.00 90 1010.8
20260506161321 80 360 3.0 5.0 0.00 0.00 0.00 92 1011.0
20260506160819 79 360 1.0 5.0 0.00 0.00 0.00 91 1011.0
20260506160317 79 360 3.0 5.0 0.00 0.00 0.00 91 1010.9
20260506155816 79 360 1.0 5.0 0.00 0.00 0.00 92 1010.8
20260506155314 79 360 2.0 5.0 0.00 0.00 0.00 92 1010.7
20260506154815 79 360 3.0 5.0 0.00 0.00 0.00 92 1010.5
20260506154314 79 360 2.0 4.0 0.00 0.00 0.00 92 1010.4
20260506153813 79 360 1.0 4.0 0.00 0.00 0.00 92 1010.2
20260506153330 79 360 2.0 4.0 0.00 0.00 0.00 92 1010.0
20260506152829 79 360 0.0 3.0 0.00 0.00 0.00 92 1009.8
20260506152326 79 360 1.0 3.0 0.00 0.00 0.00 92 1009.6